Weather in Korotysh

Russia / Oryol Oblast     52°22′18″N   37°27′02″E
temp.,
°C
wind,
m/s
gust,
m/s
humid.,
%
clouds,
%
prec.,
mm/h
press.,
hPa
HPBL,
m
17 april, sat
sat1700:00+8sse22740 0.0 101839
03:00+6ese117729 0.0 101810
06:00+7sw4677100 0.1 1019201
09:00+6wsw3491100 2.2 1019290
12:00+7wnw3385100 4.1 1018461
15:00+8wsw1278100 4.1 1018569
18:00+9sw2472100 0.0 1017616
21:00+6wsw018735 0.4 101810
18 april, sun
sun1800:00+5s11905 0.0 101817
03:00+4sw239270 0.0 101847
06:00+5wsw228967 0.0 101853
09:00+7sse227586 0.3 1019348
12:00+10s3355100 0.3 10181363
15:00+11ssw3451100 0.9 10181520
18:00+8ssw5576100 0.2 1019506
21:00+6s1387100 0.4 1019173
19 april, mon
mon1900:00+6sse2591100 3.4 1019729
03:00+6ese4793100 6.5 1018450
06:00+6e3694100 4.1 1018460
09:00+7ese3892100 5.9 1019484
12:00+9ese3575100 0.5 1018600
15:00+11e5668100 2.2 1017989
18:00+11e6975100 1.6 1017680
21:00+7e71094100 5.0 1019604
20 april, tue
tue2000:00+5ene61093100 6.1 1019647
03:00+5e61192100 6.1 1018518
06:00+5ene61195100 0.0 1017541
09:00+6ene81284100 0.0 1015714
12:00+7ene81487100 0.0 1012721
15:00+6ene91693100 2.8 1007802
18:00+5ene111994100 13.6 10021031
21:00+9ese101795100 23.4 996691
21 april, wed
wed2100:00+10sse7159143 1.4 997582
03:00+9sse81587100 2.1 9971196
06:00+8sse81393100 0.8 997970
09:00+3ssw81396100 2.2 1001880
12:00+3sw101596100 0.3 10051029
15:00+5sw91585100 0.3 10101257
18:00+7sw51181100 0.0 1014930
21:00+6ssw51085100 0.1 1017401